This demonstration page uses our WeatherBlox Daily Observations layout. Learn more.

Left ArrowRight Arrow

Hourly Observations for December 27, 2021

Temp ( °F °C ) Dew Point ( °F °C ) Humidity (%) Winds ( mph kmh ) Pressure ( in mb ) Visibility ( mi km ) Precip ( " mm )
12:51 am 00:51 Clear 38 3.3 37 2.8 97 97 Calm 29.93 1014 10 16 0.00 0.00
1:51 am 01:51 Clear 37 2.8 36 2.2 96 96 E 6 9 29.94 1014 10 16 0.00 0.00
2:51 am 02:51 Clear 36 2.2 35 1.7 97 97 ESE 3 6 29.94 1014 10 16 0.00 0.00
3:51 am 03:51 Clear 37 2.8 35 1.7 93 93 Calm 29.93 1014 10 16 0.00 0.00
4:51 am 04:51 Clear 35 1.7 34 1.1 96 96 Calm 29.93 1014 10 16 0.00 0.00
5:51 am 05:51 Clear 34 1.1 33 0.6 97 97 ESE 6 9 29.96 1015 10 16 0.00 0.00
6:51 am 06:51 Clear 35 1.7 35 1.7 100 100 SE 5 7 29.96 1015 10 16 0.00 0.00
7:51 am 07:51 Sunny 36 2.2 36 2.2 100 100 SE 3 6 29.97 1015 10 16 0.00 0.00
8:51 am 08:51 Sunny 38 3.3 37 2.8 97 97 ESE 6 9 30.01 1016 10 16 0.00 0.00
9:51 am 09:51 Sunny 42 5.6 38 3.3 85 85 SE 5 7 29.99 1016 10 16 0.00 0.00
10:51 am 10:51 Sunny 44 6.7 39 3.9 83 83 ESE 8 13 29.96 1015 10 16 0.00 0.00
11:51 am 11:51 Sunny 48 8.9 38 3.3 68 68 S 3 6 29.91 1013 10 16 0.00 0.00
12:51 pm 12:51 Partly Cloudy 49 9.4 39 3.9 69 69 W 5 7 29.88 1012 10 16 0.00 0.00
1:51 pm 13:51 Mostly Cloudy 51 10.6 39 3.9 64 64 Calm 29.85 1011 10 16 0.00 0.00
2:51 pm 14:51 Cloudy 50 10 39 3.9 66 66 SE 6 9 29.84 1011 10 16 0.00 0.00
3:51 pm 15:51 Cloudy 51 10.6 38 3.3 61 61 ENE 13 20 29.80 1009 10 16 0.00 0.00
4:51 pm 16:51 Mostly Cloudy 54 12.2 35 1.7 49 49 SSW 8 13 29.78 1009 10 16 0.00 0.00
5:51 pm 17:51 Partly Cloudy 52 11.1 36 2.2 55 55 WSW 9 15 29.79 1009 10 16 0.00 0.00
6:51 pm 18:51 Cloudy 48 8.9 41 5 77 77 SSW 10 17 29.80 1009 10 16 0.00 0.00
7:51 pm 19:51 Cloudy 48 8.9 40 4.4 74 74 ENE 5 7 29.80 1009 10 16 0.00 0.00
8:51 pm 20:51 Cloudy 47 8.3 40 4.4 77 77 SE 3 6 29.82 1010 10 16 0.00 0.00
9:51 pm 21:51 Clear 43 6.1 39 3.9 86 86 NNW 5 7 29.84 1010 10 16 0.00 0.00
10:51 pm 22:51 Clear 42 5.6 39 3.9 89 89 SW 6 9 29.82 1010 10 16 0.00 0.00
11:51 pm 23:51 Clear 46 7.8 37 2.8 71 71 NNW 14 22 29.79 1009 10 16 0.00 0.00

Powered by AerisWeather